Weather History for Rawlins, WY

Change the Weather History Date:

Thursday, May 16, 2013

  Actual Average Record
Temperature  
Mean Temperature 58 °F 49 °F  
Max Temperature 73 °F 64 °F 82 °F (1988)
Min Temperature 42 °F 35 °F 27 °F (1955)
Degree Days  
Heating Degree Days 7 16  
Month to date heating degree days 242 286  
Since 1 July heating degree days 7721 8005  
Cooling Degree Days 0 0  
Month to date cooling degree days 1 0  
Year to date cooling degree days 1 0  
Growing Degree Days 8 (Base 50)    
Moisture  
Dew Point 39 °F    
Average Humidity 56    
Maximum Humidity 89    
Minimum Humidity 22    
Precipitation  
Precipitation 0.02 in 0.05 in 0.44 in (1991)
Month to date precipitation 0.20 0.71  
Year to date precipitation 1.79 3.22  
Sea Level Pressure  
Sea Level Pressure 29.79 in    
Wind  
Wind Speed 11 mph (WSW)    
Max Wind Speed 40 mph    
Max Gust Speed 48 mph    
Visibility 10 miles    
Events Rain , Thunderstorm    
T = Trace of Precipitation, MM = Missing Value Source: NWS Daily Summary

Daily Weather History Graph

Daily Weather History Graph

Search for Another Location

Airport:

Trip Planner

Search our weather history database for the weather conditions in past years. The results will help you decide how hot, cold, wet, or windy it might be!

Date:

Astronomy

May. 16, 2013 Rise Set
Actual Time 5:47 AM MDT 8:23 PM MDT
Civil Twilight 5:15 AM MDT 8:55 PM MDT
Nautical Twilight 4:35 AM MDT 9:35 PM MDT
Astronomical Twilight 3:50 AM MDT 10:20 PM MDT
Moon 11:25 AM MDT (5/16) 12:44 AM MDT (5/16)
Length of Visible Light 15h 39m
Length of Day
14h 35m
Waxing Crescent, 36% of the Moon is Illuminated
May 16
Waxing Crescent
May 17
First Quarter
May 24
Full
May 31
Last Quarter
Jun 8
New

Hourly Weather History & Observations

Time (MDT) Temp. Windchill Dew Point Humidity Pressure Visibility Wind Dir Wind Speed Gust Speed Precip Events Conditions
12:53 AM 52.0 °F - 44.1 °F 74% 29.73 in 10.0 mi South 10.4 mph 18.4 mph 0.01 in   Overcast
1:53 AM 51.1 °F - 43.0 °F 74% 29.73 in 10.0 mi Calm Calm - N/A   Scattered Clouds
2:53 AM 48.9 °F - 43.0 °F 80% 29.73 in 10.0 mi SSE 8.1 mph - N/A   Scattered Clouds
3:53 AM 48.9 °F - 43.0 °F 80% 29.75 in 10.0 mi NW 9.2 mph - N/A   Mostly Cloudy
4:53 AM 46.0 °F 42.5 °F 41.0 °F 83% 29.82 in 10.0 mi SW 6.9 mph - N/A   Clear
5:53 AM 44.1 °F - 41.0 °F 89% 29.84 in 10.0 mi Calm Calm - N/A   Clear
6:53 AM 46.9 °F - 43.0 °F 86% 29.85 in 10.0 mi Calm Calm - N/A   Mostly Cloudy
7:53 AM 52.0 °F - 44.1 °F 74% 29.84 in 10.0 mi Variable 3.5 mph - N/A   Partly Cloudy
8:53 AM 55.9 °F - 44.1 °F 64% 29.82 in 10.0 mi WSW 10.4 mph - N/A   Scattered Clouds
9:53 AM 60.1 °F - 43.0 °F 53% 29.78 in 10.0 mi WSW 15.0 mph - N/A   Clear
10:53 AM 64.0 °F - 41.0 °F 43% 29.74 in 10.0 mi WSW 17.3 mph 24.2 mph N/A   Clear
11:53 AM 69.1 °F - 37.9 °F 32% 29.73 in 10.0 mi WSW 15.0 mph 27.6 mph N/A   Clear
1:53 PM 72.0 °F - 30.0 °F 21% 29.67 in 10.0 mi WSW 27.6 mph 38.0 mph N/A   Mostly Cloudy
2:13 PM 68.0 °F - 30.2 °F 24% 29.94 in 10.0 mi WSW 29.9 mph 39.1 mph N/A Thunderstorm Partly Cloudy
2:33 PM 64.4 °F - 30.2 °F 28% 29.96 in 10.0 mi West 26.5 mph 38.0 mph N/A   Mostly Cloudy
2:53 PM 55.9 °F - 39.9 °F 55% 29.84 in 9.0 mi West 25.3 mph 47.2 mph 0.00 in Rain Light Rain
4:53 PM 68.0 °F - 33.1 °F 27% 29.70 in 10.0 mi WSW 13.8 mph 28.8 mph N/A   Scattered Clouds
5:22 PM 66.2 °F - 35.6 °F 32% 29.92 in 10.0 mi WNW 25.3 mph 33.4 mph N/A   Mostly Cloudy
5:53 PM 64.9 °F - 33.1 °F 31% 29.71 in 10.0 mi NW 17.3 mph 26.5 mph N/A   Clear
6:53 PM 64.0 °F - 33.1 °F 31% 29.72 in 10.0 mi WNW 12.7 mph - N/A   Partly Cloudy
7:53 PM 60.1 °F - 37.9 °F 44% 29.75 in 10.0 mi SSW 19.6 mph 27.6 mph N/A   Overcast
8:00 PM 59.0 °F - 37.4 °F 45% 29.95 in 10.0 mi South 16.1 mph 26.5 mph N/A   Overcast
8:53 PM 55.9 °F - 39.0 °F 53% 29.75 in 10.0 mi SW 8.1 mph - N/A   Mostly Cloudy
9:53 PM 54.0 °F - 37.9 °F 55% 29.74 in 10.0 mi NW 6.9 mph - N/A   Mostly Cloudy
10:53 PM 52.0 °F - 39.9 °F 63% 29.74 in 10.0 mi Calm Calm - N/A   Mostly Cloudy
11:53 PM 50.0 °F - 39.9 °F 68% 29.72 in 10.0 mi Calm Calm - N/A   Mostly Cloudy